Location: Hartford
(41.7640°N, 72.6860°W)
Time: 04:06:52
(UTC-04:00)

ISS - Visible Passes

Search period start: 17 April 2014 00:00
Search period end: 27 April 2014 00:00
Orbit: 414 x 419 km, 51.6° (Epoch: 17 April)

Date Brightness Start Highest point End Pass type
(mag) Time Alt. Az. Time Alt. Az. Time Alt. Az.
17 Apr -1.0 20:41:52 10° NW 20:44:21 19° NNE 20:46:48 10° ENE visible
17 Apr -0.8 22:18:15 10° NW 22:19:43 24° NW 22:19:43 24° NW visible
18 Apr -2.5 21:30:01 10° NW 21:33:14 42° NNE 21:33:17 42° NNE visible
19 Apr -1.8 20:41:46 10° NW 20:44:47 29° NNE 20:46:49 16° ENE visible
19 Apr -0.8 22:18:24 10° WNW 22:19:44 21° WNW 22:19:44 21° WNW visible
20 Apr -3.3 21:29:55 10° WNW 21:33:16 79° SW 21:33:16 79° SW visible
21 Apr -3.1 20:41:31 10° NW 20:44:51 62° NNE 20:46:49 22° ESE visible
21 Apr -0.4 22:19:06 10° W 22:19:44 13° W 22:19:44 13° W visible
22 Apr -1.8 21:30:03 10° WNW 21:32:58 27° SW 21:33:17 27° SSW visible
23 Apr -2.6 20:41:19 10° WNW 20:44:34 48° SW 20:46:53 17° SSE visible
25 Apr -0.9 20:41:35 10° W 20:43:53 18° SW 20:46:11 10° S visible
